This is the latest recevied weather packets stored in our database for station/object KC8YYF. If no packets are shown the sender has not sent any weather packets the latest 10 day(s).
| Time | Temp. | Humidity | Pressure | Rain* | Wind** | Luminosity | Snow |
|---|---|---|---|---|---|---|---|
| 1778021813 | 20° C | 65% | 1008 hPa | 0 mm | - | 10 W/m² | - |
| 1778021510 | 20° C | 65% | 1008.2 hPa | 0 mm | - | 17 W/m² | - |
| 1778021205 | 20.56° C | 65% | 1008.5 hPa | 0 mm | - | 17 W/m² | - |
| 1778020904 | 20.56° C | 65% | 1008.2 hPa | 0 mm | - | 17 W/m² | - |
| 1778020601 | 20.56° C | 64% | 1008.1 hPa | 0 mm | - | 31 W/m² | - |
| 1778020297 | 20.56° C | 65% | 1008.2 hPa | 0 mm | - | 35 W/m² | - |
| 1778019993 | 20.56° C | 64% | 1008.2 hPa | 0 mm | - | 33 W/m² | - |
| 1778019689 | 20.56° C | 63% | 1008.3 hPa | 0 mm | - | 23 W/m² | - |
| 1778019387 | 20.56° C | 65% | 1008.3 hPa | 0 mm | - | 20 W/m² | - |
| 1778019083 | 20.56° C | 63% | 1008.3 hPa | 0 mm | - | 34 W/m² | - |
| 1778018781 | 20.56° C | 65% | 1008.3 hPa | 0 mm | - | 46 W/m² | - |
| 1778018478 | 20.56° C | 65% | 1008.3 hPa | 0 mm | - | 40 W/m² | - |
| 1778018175 | 20.56° C | 64% | 1008 hPa | 0 mm | - | 45 W/m² | - |
| 1778017873 | 20.56° C | 66% | 1008.4 hPa | 0 mm | - | 31 W/m² | - |
| 1778017571 | 20.56° C | 66% | 1008.2 hPa | 0 mm | - | 44 W/m² | - |
| 1778017268 | 20.56° C | 64% | 1008.3 hPa | 0 mm | - | 37 W/m² | - |
| 1778016966 | 20.56° C | 72% | 1008 hPa | 0 mm | - | 38 W/m² | - |
| 1778016662 | 20.56° C | 67% | 1008.4 hPa | 0 mm | - | 42 W/m² | - |
| 1778016358 | 20.56° C | 67% | 1008.2 hPa | 0 mm | - | 51 W/m² | - |
| 1778016056 | 20.56° C | 62% | 1008.5 hPa | 0 mm | - | 43 W/m² | - |
| 1778015753 | 20.56° C | 61% | 1008.4 hPa | 0 mm | - | 44 W/m² | - |
| 1778015450 | 21.11° C | 60% | 1008.5 hPa | 0 mm | - | 65 W/m² | - |
| 1778015146 | 20.56° C | 63% | 1008.5 hPa | 0 mm | - | 84 W/m² | - |
| 1778014844 | 20.56° C | 62% | 1008.4 hPa | 0 mm | - | 75 W/m² | - |
| 1778014541 | 20.56° C | 62% | 1008.4 hPa | 0 mm | - | 72 W/m² | - |
* Rain latest hour (hover to see other rain measurements)
** Current wind speed in m/s (hover to see current wind gust speed)